HST
1 20580U 90037B   24137.55314942  .00011573  00000-0  55490-3 0  9997
2 20580  28.4675 197.0131 0002740  61.7760 298.3108 15.17318217672227
ISS (ZARYA)
1 25544U 98067A   24138.35304039  .00022546  00000-0  38190-3 0  9998
2 25544  51.6383 108.2161 0003284 178.9399 298.2365 15.51442373453765
CXO
1 25867U 99040B   24138.77365644  .00000644  00000-0  00000+0 0  9993
2 25867  40.5075 156.6402 8922033 294.4302 359.8066  0.37814091 25609